GFSSGP_925_spd_087.txt.gz
Wind_Speed
15 10 10 10 8 8 17 17 5 5 6 3 5 7 7 15 3 1 7 11 13 16 15 18 17 17 18 19 20 20 20 22 22 22 22 20 22 21 24 23 23 24 22 21 18 18 17 16 19
13 14 12 7 10 15 15 17 9 9 5 4 5 7 11 11 2 6 9 9 16 16 15 15 18 17 18 18 18 19 19 21 23 23 22 23 23 24 23 22 25 24 22 19 19 19 20 19 20
13 15 9 7 16 19 17 14 6 7 4 8 7 5 10 6 2 2 10 15 17 16 14 14 13 15 18 17 17 17 18 20 22 23 22 22 25 26 24 23 25 23 21 20 20 19 19 20 21
14 11 8 14 22 19 21 17 1 7 6 8 7 5 3 4 1 5 14 16 17 15 13 14 12 14 15 16 16 16 17 18 19 20 24 24 23 22 22 21 24 23 22 22 21 19 20 21 22
20 8 12 18 25 25 19 12 7 10 10 5 5 11 8 8 8 4 14 16 17 15 14 13 13 13 16 16 17 17 16 17 18 20 21 21 21 21 23 24 25 25 22 19 17 17 20 22 22
10 12 16 18 24 24 19 12 14 13 14 13 13 12 10 2 4 8 13 16 15 15 14 12 15 14 16 17 17 17 16 16 18 19 18 18 21 23 22 22 20 15 12 11 13 15 19 23 25
18 15 20 25 23 21 14 10 18 20 17 20 18 16 12 5 4 1 11 17 15 14 13 14 15 15 15 16 18 18 17 16 17 16 18 18 20 20 21 21 19 17 14 12 12 14 19 23 25
14 16 28 23 20 25 16 11 18 14 17 16 5 9 13 10 5 6 11 17 16 14 13 14 14 14 13 13 18 18 17 16 16 15 16 17 19 21 25 25 23 21 18 14 15 13 15 19 23
17 16 21 25 23 22 8 14 17 13 17 16 13 15 2 3 1 4 13 17 17 16 15 13 15 14 13 13 13 17 18 17 16 15 16 17 17 22 26 27 23 21 22 19 19 16 16 20 22
19 16 26 22 21 15 8 16 14 13 16 17 17 13 14 9 7 5 14 18 20 19 18 15 14 16 16 13 12 14 15 16 16 16 16 17 19 20 22 27 26 18 24 23 20 24 21 22 20
22 24 21 23 14 12 16 18 18 20 21 19 17 17 17 19 13 9 12 19 23 22 19 18 16 16 16 14 14 13 15 17 18 19 18 19 20 21 22 22 25 25 24 23 24 25 25 24 21
23 23 21 19 20 15 18 20 22 22 21 18 19 18 20 17 15 14 16 18 23 26 23 20 18 18 19 16 15 14 14 14 15 18 19 19 19 21 23 22 22 23 27 27 28 30 26 25 23
22 22 21 22 19 18 21 23 25 26 23 22 22 23 22 20 19 23 23 21 21 26 26 23 22 20 20 17 17 15 15 14 17 17 18 19 20 22 21 22 23 22 22 28 28 28 28 25 23
17 18 17 19 21 18 20 23 24 24 23 23 24 24 21 21 20 24 26 25 23 24 26 23 24 22 21 20 16 16 15 15 18 22 16 20 19 21 21 21 22 21 20 28 30 29 27 26 23
16 22 20 22 22 23 21 25 25 24 24 26 25 22 21 23 25 23 29 26 24 25 25 26 24 24 22 19 17 13 14 17 19 19 17 19 19 19 22 21 18 17 16 24 28 30 26 25 23
15 19 18 18 18 13 17 20 17 8 13 16 19 20 21 23 24 28 31 29 27 25 26 27 25 25 23 20 18 13 17 17 15 17 16 18 20 20 21 19 16 19 20 22 29 33 28 26 25
16 17 19 16 11 11 15 17 14 16 12 13 14 16 16 17 21 27 31 31 30 24 24 28 27 26 24 21 17 16 12 16 15 15 16 18 20 18 20 19 18 20 22 22 30 31 29 25 21
15 18 17 17 12 6 16 20 19 20 21 23 23 20 19 19 18 19 25 28 27 23 25 29 27 25 24 20 16 15 13 14 14 14 17 17 22 23 24 25 19 21 27 27 31 31 28 25 24
18 22 21 20 16 17 22 22 21 21 22 23 22 22 21 19 17 19 25 30 19 20 25 29 28 27 26 22 20 17 15 15 14 14 16 19 20 22 26 26 26 28 32 32 34 32 32 26 31
19 22 23 21 19 15 19 22 20 22 23 24 23 21 21 18 19 19 22 26 18 21 25 28 28 29 27 23 20 18 15 14 15 14 13 18 21 23 26 26 25 31 29 30 33 32 28 26 28
18 19 21 20 18 19 22 24 24 17 17 16 17 20 20 20 20 17 18 24 22 22 25 28 29 29 26 23 20 17 14 11 13 14 14 18 20 19 21 23 27 27 34 35 37 34 30 23 27
18 17 16 15 15 11 12 14 19 17 9 8 7 11 13 18 20 17 18 20 25 24 25 27 28 29 27 25 22 21 19 15 15 16 15 13 12 14 17 21 28 34 32 33 38 36 31 28 25
17 13 10 14 15 16 18 11 16 12 8 4 9 11 13 13 15 16 20 19 28 28 25 27 27 28 27 26 22 21 18 14 14 14 11 13 9 9 14 22 30 33 32 40 40 36 31 31 30
13 10 13 15 13 13 19 15 12 4 8 6 7 7 12 13 13 9 10 17 23 28 25 25 27 29 27 27 23 21 18 14 14 12 14 10 8 6 9 14 24 34 31 35 41 43 40 32 29
14 12 7 8 7 10 5 6 12 9 6 7 9 10 8 11 13 15 9 14 18 22 25 26 28 27 29 28 24 20 17 16 14 14 14 13 9 9 8 11 18 26 31 37 36 40 40 34 28
17 16 8 9 8 9 0 8 5 12 11 6 7 7 10 9 10 12 17 11 12 15 23 23 25 25 27 28 23 20 17 16 13 15 14 13 11 10 9 11 18 20 26 31 32 33 35 27 26
19 15 17 17 20 13 9 13 15 12 8 5 7 12 13 12 13 15 19 7 8 14 20 21 23 24 27 27 23 19 18 15 15 15 14 13 12 12 15 11 16 21 24 26 31 26 24 21 18
18 4 8 8 6 10 14 17 9 8 5 6 13 12 13 14 15 16 18 20 7 19 18 18 20 23 26 23 20 18 17 15 15 15 14 14 12 14 15 18 15 18 22 24 27 27 23 24 23
12 11 9 6 9 5 7 2 12 8 7 10 13 12 13 13 13 14 17 26 14 14 15 18 21 20 22 21 19 19 17 16 15 15 14 12 10 11 12 17 20 21 22 24 25 26 28 28 25
10 13 15 8 12 6 4 2 5 8 5 6 7 9 11 11 12 13 15 20 15 7 13 16 20 21 18 19 18 18 16 15 16 14 11 10 10 10 12 13 17 22 25 27 28 25 26 27 27

GFSSGP_925_spd_090.txt.gz
Wind_Speed
15 13 9 14 6 8 15 18 21 23 0 5 7 7 11 13 11 4 18 16 21 21 22 20 18 17 17 17 17 16 17 17 16 16 16 16 15 15 16 16 17 18 17 17 17 16 15 14 15
13 13 14 6 9 13 14 21 21 19 4 10 5 5 10 11 4 11 12 16 19 19 21 20 18 16 17 17 17 16 17 17 17 17 16 16 17 17 16 16 16 18 18 17 17 15 15 15 16
17 18 8 5 13 17 16 20 21 3 10 3 2 8 7 5 2 7 23 19 18 19 18 17 18 17 16 16 16 16 16 17 18 18 18 18 18 17 17 16 17 20 18 16 16 16 16 17 18
10 11 8 12 21 19 25 20 23 10 7 1 7 10 5 9 5 6 18 19 18 19 17 14 15 15 15 15 15 15 15 15 17 18 18 19 19 19 18 17 18 17 16 14 17 17 17 18 19
22 7 11 16 22 23 21 24 20 9 13 4 6 10 6 8 7 9 15 15 16 17 15 13 11 12 14 14 14 14 14 14 16 15 18 18 17 18 18 19 18 17 12 10 9 11 14 16 17
9 12 14 17 22 23 20 21 21 16 10 9 10 9 8 4 9 11 19 14 15 14 10 12 13 13 13 14 13 13 13 14 16 17 15 16 17 18 18 19 18 14 15 16 8 4 11 16 18
17 14 19 23 21 22 21 15 16 13 13 15 16 14 9 1 6 10 16 17 15 15 12 9 14 14 14 13 13 13 13 12 14 15 14 14 16 17 17 17 18 18 17 17 13 8 8 10 16
14 14 25 22 19 24 19 20 9 11 15 13 8 16 7 10 7 1 6 22 17 15 14 10 12 13 13 13 14 14 13 12 12 14 15 15 15 16 17 19 21 21 20 21 21 20 14 14 16
20 16 18 24 24 22 21 21 13 10 16 12 13 6 6 12 10 8 13 18 19 16 16 15 14 13 12 11 12 15 15 14 14 14 14 14 16 18 20 24 23 21 20 19 20 23 21 18 17
19 17 24 23 21 21 21 16 11 14 15 11 12 14 14 13 10 9 12 15 20 20 18 17 18 16 16 13 12 14 15 16 16 14 13 14 17 21 22 26 25 23 21 19 22 21 20 19 20
23 23 22 24 24 24 22 16 17 17 17 15 11 13 15 12 9 9 9 15 26 25 24 22 21 19 19 15 16 12 16 14 14 15 16 17 19 21 23 25 26 24 23 17 19 21 20 17 20
23 26 25 23 23 23 22 20 19 22 19 17 16 13 14 12 9 12 12 18 20 30 30 27 22 22 21 19 18 18 19 19 16 19 19 17 20 23 25 25 29 30 20 23 24 26 21 19 23
24 23 24 22 23 22 22 21 21 24 20 20 19 18 16 14 15 17 19 21 22 23 31 33 28 25 23 23 22 18 19 15 16 17 19 19 19 24 25 22 26 27 22 26 28 27 24 20 24
20 22 22 21 21 20 22 25 21 21 21 24 23 22 19 18 19 20 18 24 26 23 26 35 31 25 26 24 21 21 18 15 17 16 18 19 19 21 22 22 22 21 25 29 29 27 26 26 25
18 19 19 21 22 23 21 27 26 22 23 26 25 21 20 18 18 18 24 25 26 26 24 37 35 28 26 25 20 21 22 17 16 18 17 16 19 21 22 25 25 22 24 26 27 27 24 31 30
19 17 17 17 22 24 23 29 24 22 22 20 19 19 19 19 19 24 27 28 29 29 28 35 34 32 28 24 22 20 20 19 17 17 17 17 18 18 20 18 23 23 22 24 25 28 24 27 30
15 19 22 24 22 20 18 22 18 16 15 14 12 11 11 13 18 24 29 30 32 30 27 37 37 33 30 24 25 23 19 19 17 15 18 15 18 17 18 20 21 21 22 23 23 24 29 22 20
17 18 20 19 16 16 22 24 18 18 19 17 19 16 15 14 15 15 24 30 32 33 26 36 35 32 30 24 22 21 20 15 18 17 18 16 18 18 19 19 19 21 22 20 23 28 28 26 26
20 22 23 21 23 21 21 21 21 21 22 19 22 19 20 19 15 17 21 26 32 34 32 38 34 32 30 25 23 20 19 19 19 20 19 18 20 22 21 20 20 21 23 23 26 29 29 23 24
19 18 20 21 21 18 23 26 23 21 23 22 21 18 18 19 15 14 19 18 22 22 25 35 33 32 29 25 23 20 19 19 19 19 19 23 19 21 22 21 24 22 21 23 29 30 24 22 23
19 17 17 19 18 22 21 24 26 26 29 23 21 20 19 20 12 11 13 15 20 19 18 28 31 29 28 26 22 19 20 18 19 19 19 22 22 24 23 23 23 23 25 30 34 34 31 24 30
20 16 18 17 16 13 17 17 20 19 19 14 7 4 5 8 10 11 14 10 17 20 22 24 30 28 28 28 23 24 21 17 19 18 18 20 21 19 20 21 26 26 31 30 33 36 33 27 23
20 15 15 16 14 17 19 13 14 18 20 14 9 8 12 14 7 9 9 7 17 27 27 29 30 30 30 31 25 25 20 18 20 19 18 18 17 15 15 19 24 28 32 31 34 33 33 32 27
15 14 16 14 13 15 19 17 15 16 5 8 12 11 11 11 14 16 14 11 18 20 30 32 30 30 30 29 25 25 20 20 20 19 18 16 14 14 13 17 22 26 32 35 35 36 37 34 30
13 11 9 7 9 12 10 13 16 9 8 8 8 9 9 10 11 14 15 16 22 15 29 31 31 29 28 28 24 24 22 19 21 18 18 18 14 12 10 12 17 21 29 35 35 37 37 41 34
18 16 9 9 9 10 2 7 7 13 11 8 9 10 11 10 10 13 14 17 21 23 26 26 28 25 29 25 23 23 19 17 16 20 18 17 13 12 11 10 10 15 24 31 34 34 34 40 37
17 7 15 14 17 11 10 6 10 9 10 8 12 12 11 9 9 12 15 16 26 18 23 25 22 18 26 24 24 23 20 19 15 18 18 17 14 13 11 8 9 10 18 24 28 27 35 38 36
21 13 10 9 4 7 12 14 5 9 4 12 12 12 11 11 11 12 12 15 23 13 16 15 19 14 20 20 21 21 17 16 15 19 16 17 15 14 13 10 10 13 15 20 23 24 26 32 33
11 15 6 3 8 4 4 3 11 9 9 9 10 11 12 12 11 12 12 18 21 20 8 11 14 17 22 22 19 21 16 17 16 18 17 16 14 15 12 13 13 13 17 19 22 23 26 27 27
27 14 17 4 5 7 8 7 11 15 11 7 13 13 13 13 12 12 12 18 20 22 26 8 11 14 18 10 18 17 13 15 16 16 14 14 14 14 13 14 16 13 16 18 21 22 20 19 18

GFSSGP_925_spd_093.txt.gz
Wind_Speed
9 9 6 4 2 3 4 8 13 18 7 5 4 7 6 5 4 4 14 19 24 26 27 23 20 19 19 19 19 18 18 16 14 14 14 13 13 14 15 15 16 16 16 16 19 17 15 15 15
8 6 4 2 4 1 6 14 20 14 4 3 6 5 7 1 6 11 11 21 19 24 24 23 20 19 19 18 19 18 17 16 15 14 14 13 13 13 14 14 15 16 15 15 17 14 14 16 16
9 9 2 4 4 7 6 11 15 9 3 3 2 2 4 2 7 4 27 22 17 22 21 21 19 18 17 17 17 17 17 16 14 14 14 14 13 14 14 14 15 16 16 14 14 13 13 15 16
6 2 4 2 10 10 17 15 17 11 4 3 3 2 3 12 6 17 29 22 22 21 18 18 18 17 17 17 16 16 16 16 15 14 14 14 14 15 15 15 15 15 12 11 12 13 13 15 16
3 2 3 4 13 8 16 18 19 16 7 6 6 2 2 4 28 33 30 30 23 21 16 17 16 17 17 16 16 15 15 15 16 15 14 14 15 16 16 16 14 13 11 13 15 13 12 12 13
1 3 2 12 13 17 15 17 15 16 8 5 6 6 3 9 31 29 30 29 24 23 19 16 17 18 17 17 16 15 14 15 16 16 15 15 15 16 17 17 15 16 16 17 17 19 17 13 9
4 2 6 7 10 17 18 12 5 8 11 6 6 6 5 9 19 30 30 27 25 20 17 16 18 19 18 18 17 16 15 14 15 15 14 13 15 18 18 18 17 19 19 20 20 19 23 18 14
4 3 9 8 13 20 17 13 7 6 5 2 3 4 2 4 17 27 29 28 26 21 17 15 18 19 19 19 18 18 17 14 15 14 14 14 15 17 18 19 22 22 21 21 20 18 19 18 18
4 8 13 14 16 18 17 14 9 6 3 0 2 4 8 14 10 9 17 25 28 23 21 18 18 19 18 19 19 19 18 17 15 16 16 15 17 18 21 23 24 24 22 23 19 16 14 18 22
6 9 16 10 15 16 16 9 11 11 7 5 2 5 6 18 17 11 8 13 22 26 22 20 18 19 19 18 20 20 20 19 18 16 16 17 18 21 22 23 24 24 23 22 20 19 16 18 21
6 13 10 13 16 15 16 17 7 12 8 5 2 7 7 7 10 12 16 18 27 30 28 25 20 19 21 21 20 21 21 19 19 17 17 17 20 21 23 25 26 25 24 24 23 23 21 19 22
14 16 19 19 20 21 19 9 14 9 7 8 9 5 4 9 8 9 14 23 24 28 35 32 29 26 24 21 22 20 21 20 19 19 18 20 22 23 25 29 31 29 29 28 29 26 26 21 20
15 15 16 16 18 20 14 18 14 12 11 10 12 13 10 9 9 12 19 26 25 29 35 38 33 33 31 24 24 21 23 21 19 21 22 20 24 26 26 29 33 33 32 31 30 26 26 24 21
12 13 12 7 9 6 9 7 7 9 9 14 15 17 15 12 10 14 12 22 27 25 35 40 37 35 31 32 27 25 26 24 23 23 25 26 25 25 27 25 27 34 37 31 28 31 30 28 25
8 13 11 8 8 11 11 18 17 13 11 18 18 17 17 14 19 13 25 22 24 31 27 38 43 38 34 35 28 27 27 27 25 23 23 23 24 24 25 27 24 31 37 30 30 31 29 26 24
6 7 8 4 9 12 10 25 20 17 17 21 23 19 22 20 17 25 33 32 28 29 29 41 45 43 38 37 32 33 25 22 22 24 22 22 22 22 21 22 21 24 25 26 29 27 25 25 22
5 9 11 15 13 15 11 22 12 10 11 11 8 8 7 11 12 20 32 36 36 35 30 36 41 45 41 38 34 31 26 24 21 22 22 22 20 20 19 21 22 24 24 26 26 27 27 25 21
6 8 9 9 7 5 9 10 14 14 18 9 8 11 12 12 10 11 19 35 39 40 39 31 41 46 44 37 30 26 24 26 26 22 21 20 18 19 19 21 22 26 26 26 26 27 28 25 21
15 16 17 11 8 12 16 14 15 12 15 15 14 14 17 14 12 19 25 24 35 40 33 34 35 36 39 35 33 29 30 29 26 22 19 21 20 23 22 23 23 26 27 27 26 26 26 20 22
16 17 12 9 8 8 15 20 13 13 13 17 19 19 21 16 15 17 23 27 21 34 29 35 38 39 39 34 31 29 32 27 27 25 21 23 22 24 25 26 27 29 28 25 24 25 20 16 26
15 10 9 12 7 9 12 20 16 17 20 21 24 24 25 15 16 17 16 20 20 26 24 37 40 40 37 33 32 27 26 24 24 25 24 24 22 25 25 26 27 28 28 27 25 27 26 18 26
14 7 11 12 9 8 3 15 11 14 21 20 19 10 5 7 10 6 11 9 15 20 26 37 39 39 37 37 33 34 26 19 18 28 26 25 26 24 24 27 27 28 30 27 30 31 33 23 24
15 8 13 5 9 8 8 10 14 14 17 17 7 5 7 7 10 11 11 14 22 18 31 37 40 39 40 39 38 36 27 22 20 25 25 24 26 27 25 27 26 25 26 27 30 33 32 32 28
5 7 6 5 5 12 16 11 17 11 12 2 5 8 10 11 13 13 15 20 20 20 23 38 39 37 42 40 35 33 31 26 25 27 27 26 26 27 24 23 24 26 27 30 32 36 34 34 30
2 2 3 3 4 12 6 7 13 11 1 5 4 10 8 11 13 14 16 15 20 21 18 24 36 32 39 38 35 31 32 30 28 29 29 29 29 24 21 20 22 25 28 30 33 35 35 36 37
7 7 5 7 6 8 5 6 4 4 9 22 12 12 10 14 14 15 16 15 22 26 20 24 29 29 29 33 31 31 31 28 27 31 29 28 24 20 20 20 20 23 28 25 31 33 37 36 38
6 10 6 9 13 7 8 10 6 6 10 19 14 16 15 14 14 14 16 18 25 30 22 19 30 27 32 33 31 31 28 23 29 26 25 21 19 19 18 15 13 12 16 22 28 29 28 36 36
3 5 1 2 4 5 6 10 3 12 4 10 14 14 13 13 15 15 15 19 27 29 28 12 14 15 28 29 26 28 24 24 23 24 23 20 19 19 16 13 13 12 11 15 24 24 28 34 38
7 5 4 4 4 3 3 1 5 8 10 11 13 15 13 14 14 15 15 21 25 28 30 28 9 10 16 23 23 24 24 23 23 21 19 22 19 19 17 16 14 13 10 11 16 20 25 27 28
8 10 4 4 5 2 4 3 5 3 15 8 13 15 11 13 13 13 14 21 24 25 27 26 25 3 4 14 18 27 26 23 20 16 17 21 21 20 15 15 13 11 11 12 16 17 20 30 26

GFSSGP_925_spd_096.txt.gz
Wind_Speed
5 5 1 3 3 4 4 9 4 10 8 4 5 3 5 5 3 4 4 19 26 31 29 26 24 24 24 24 24 22 20 19 18 18 17 16 16 18 19 19 18 18 18 19 19 16 15 15 15
4 5 3 2 4 2 6 6 15 6 7 12 7 2 2 1 2 8 11 22 31 30 29 26 23 22 23 24 23 21 20 19 18 17 17 16 16 17 18 18 19 18 17 18 18 16 13 14 15
4 3 4 4 4 7 5 6 12 3 9 6 4 2 2 4 4 10 15 30 30 30 27 25 23 22 22 22 22 21 20 18 17 17 16 16 16 17 17 18 18 18 15 14 14 13 13 15 16
6 3 4 3 10 8 7 12 6 15 13 10 5 3 1 1 19 16 33 29 30 29 26 24 23 23 21 21 21 21 20 19 18 17 17 17 16 16 17 18 17 16 15 15 14 15 17 17 18
3 3 1 4 10 7 7 16 5 12 7 13 6 5 3 1 20 35 33 29 31 29 26 25 23 22 21 20 21 21 21 19 18 17 17 16 16 16 17 17 16 17 16 16 16 17 19 20 20
1 3 2 8 9 6 9 7 6 10 14 15 6 5 5 16 32 32 33 31 30 31 27 25 22 21 21 20 20 21 21 20 19 18 17 17 17 18 18 18 18 19 18 18 19 16 20 19 20
5 4 5 4 4 5 12 4 4 10 8 11 1 6 0 3 25 39 36 32 32 30 28 25 22 22 21 20 20 20 20 21 20 19 18 18 18 19 19 20 21 21 20 21 21 20 22 22 22
4 3 3 5 6 10 11 4 3 5 10 9 6 4 2 4 16 28 32 32 33 32 28 26 23 23 22 21 20 20 20 20 21 21 20 19 20 20 20 20 22 22 22 23 23 22 23 24 23
4 3 4 5 8 8 17 9 2 4 6 6 7 0 5 14 22 24 23 24 28 27 27 26 25 24 22 22 21 20 20 20 21 21 21 21 22 21 21 22 23 23 21 23 23 23 25 24 24
6 6 8 7 8 10 17 7 10 7 8 7 8 9 2 16 20 18 15 17 21 26 26 25 25 25 23 23 22 23 22 21 22 24 24 23 22 22 23 23 24 25 23 24 25 23 24 22 23
5 9 4 6 9 9 9 15 7 7 9 6 7 9 5 4 6 11 18 27 34 33 29 28 25 24 25 25 24 24 25 25 23 23 24 23 22 22 23 23 25 27 25 29 25 23 25 24 25
8 8 8 9 13 13 18 18 17 9 13 9 9 7 4 7 9 9 12 24 26 29 34 32 30 29 29 27 26 27 28 27 26 26 25 25 24 25 26 27 28 29 29 31 27 26 26 24 23
7 14 14 15 17 19 20 20 23 23 10 11 9 8 9 11 9 17 23 22 31 29 35 36 35 33 32 31 29 28 29 29 29 27 27 27 27 28 27 28 29 31 32 29 30 29 26 23 23
7 11 10 7 6 5 7 8 5 5 9 9 9 12 8 11 10 13 19 25 27 32 36 40 38 36 34 34 32 31 29 30 29 29 29 27 27 29 29 30 32 33 32 32 32 31 27 24 23
4 6 7 3 4 5 4 23 10 9 10 12 14 13 15 12 12 13 26 25 29 35 38 41 42 39 37 37 36 34 30 29 29 28 29 28 28 29 30 30 32 33 34 34 33 30 25 26 24
4 4 3 1 5 6 5 29 10 12 11 18 20 16 17 13 14 27 29 34 37 32 33 41 41 42 42 39 37 36 33 31 31 29 29 29 28 29 30 29 28 26 34 34 35 29 27 28 26
2 7 9 7 7 7 5 23 5 9 9 11 12 12 11 10 12 18 26 34 37 41 32 37 41 42 44 41 40 38 35 36 34 30 28 28 28 28 29 29 28 26 29 33 33 30 30 29 28
5 5 6 6 6 3 7 14 11 8 10 13 11 11 11 13 14 20 22 22 34 37 42 38 41 43 38 39 36 38 36 36 34 30 27 26 27 26 27 27 25 26 26 28 30 29 30 30 30
5 11 14 14 10 6 12 13 18 9 9 11 13 11 13 15 15 19 24 23 24 26 29 35 40 39 37 34 33 31 35 38 33 31 26 27 27 26 27 27 26 28 29 29 31 30 28 21 26
10 15 17 19 17 9 11 18 18 15 9 15 17 16 17 17 16 16 18 25 22 26 28 32 42 42 44 40 40 27 31 33 35 30 26 25 26 25 28 28 29 30 30 27 29 29 20 17 25
15 13 15 16 6 4 7 19 15 15 14 13 15 14 15 14 19 20 15 16 24 26 26 30 40 45 43 38 32 22 25 21 25 28 28 26 26 26 27 29 29 30 31 29 28 31 27 19 22
16 11 15 12 5 12 6 13 26 19 15 14 14 9 6 10 11 9 7 6 11 15 20 30 40 42 41 40 37 37 31 23 23 30 31 28 26 26 25 29 29 31 33 32 31 33 33 25 21
14 9 11 6 5 5 18 2 26 10 20 20 13 4 6 7 11 14 13 15 18 22 15 31 36 36 38 42 39 37 28 25 27 32 32 29 26 25 26 26 28 30 33 31 28 28 29 33 26
7 4 3 1 2 9 25 5 21 6 4 7 9 5 7 10 13 12 16 17 20 25 18 16 32 35 37 39 39 39 34 31 30 30 31 30 29 28 27 25 28 29 30 29 27 26 29 27 27
5 4 4 3 2 13 7 6 16 9 3 7 14 11 11 8 17 14 17 17 22 25 26 8 24 25 34 35 34 39 39 36 34 33 32 29 25 27 29 28 28 30 28 25 26 29 31 34 33
8 8 6 4 3 4 6 6 4 6 6 5 13 18 17 16 16 17 15 15 20 25 27 14 22 25 26 28 31 33 33 33 31 33 32 32 26 24 28 25 23 20 22 25 27 29 31 36 37
7 4 4 6 6 6 5 9 1 11 12 13 14 10 12 16 12 12 16 18 21 24 27 25 14 20 31 32 28 31 33 32 31 30 29 30 28 27 25 21 20 25 27 27 24 30 34 28 37
5 6 3 3 4 7 5 7 1 12 11 14 7 7 12 13 14 15 15 18 23 23 25 29 19 12 7 11 30 33 35 32 28 28 29 29 26 23 19 17 18 18 18 19 23 29 28 28 33
8 4 5 4 5 5 6 3 3 3 4 2 5 10 12 12 13 14 14 20 23 24 27 25 27 11 8 11 15 28 29 28 27 29 29 26 22 19 17 16 17 18 15 16 18 22 24 23 27
12 4 0 5 2 3 2 3 6 11 13 12 9 10 12 12 13 13 14 20 24 27 28 28 27 21 7 16 19 16 23 26 27 26 24 20 18 18 17 18 17 17 14 11 14 15 16 20 23

GFSSGP_925_spd_099.txt.gz
Wind_Speed
3 1 2 4 4 5 5 7 4 5 8 3 6 5 5 3 4 5 0 19 23 32 35 32 31 29 26 24 25 26 25 23 21 20 20 23 25 26 24 23 22 20 20 18 18 15 13 14 14
2 5 3 2 5 2 6 5 12 4 7 12 11 5 5 3 0 3 10 16 28 39 38 34 32 30 27 25 23 24 25 24 23 21 20 20 21 23 23 22 21 20 19 18 18 15 13 14 15
5 4 4 4 4 8 6 7 2 3 8 5 7 3 4 4 2 13 7 23 35 37 37 35 32 30 28 26 25 24 24 25 24 22 20 19 20 20 20 19 19 18 18 19 17 16 14 15 15
2 4 4 4 9 7 7 3 4 9 8 3 3 11 6 9 9 15 22 32 36 37 34 31 30 29 27 26 25 24 24 24 23 22 21 20 19 19 19 19 19 18 18 18 17 17 16 16 17
3 3 2 3 7 6 7 5 1 6 5 10 12 9 4 5 8 21 33 37 38 36 33 31 28 27 27 26 25 24 23 22 23 22 21 20 20 19 19 19 19 18 17 18 17 16 18 18 19
3 3 1 6 6 4 7 3 2 3 5 12 7 5 5 7 14 27 32 35 35 37 33 30 27 26 26 26 25 24 23 22 22 22 21 21 20 20 19 19 19 19 18 19 19 18 20 22 22
5 4 5 4 4 4 6 5 3 3 4 7 10 6 4 2 9 29 28 31 34 34 34 32 29 27 26 24 24 23 23 22 22 22 22 21 21 20 20 19 19 19 19 19 19 20 22 22 24
5 4 3 5 5 8 4 3 1 2 5 7 3 7 8 4 15 19 21 27 29 30 31 31 30 29 27 25 24 23 23 22 22 23 23 22 22 22 21 21 21 21 20 20 20 21 23 23 24
5 1 3 6 5 6 4 4 1 4 4 7 6 3 7 6 16 18 18 19 22 25 29 30 29 29 28 26 24 22 22 22 22 21 22 22 23 23 23 23 23 22 21 21 21 23 23 23 24
5 4 9 6 4 6 15 5 14 3 7 7 8 9 17 7 1 12 10 11 18 25 27 29 29 28 27 26 24 23 23 23 22 22 22 23 24 24 25 24 24 24 23 22 23 22 24 25 23
5 7 4 4 6 4 6 14 6 4 11 11 9 7 6 6 3 6 9 21 34 35 30 31 30 30 28 28 27 25 25 24 24 24 24 25 25 25 25 25 26 27 24 24 23 24 26 25 25
5 6 5 5 6 7 9 12 13 10 11 11 12 9 4 8 7 8 12 18 20 26 34 33 32 32 31 30 30 29 29 27 28 26 26 27 27 27 27 28 30 30 28 27 28 28 26 25 25
6 7 9 9 11 10 13 13 13 17 13 11 10 9 10 9 10 19 20 27 31 19 30 35 34 35 35 34 33 32 31 30 29 29 29 29 30 29 30 31 32 32 32 30 32 29 27 26 25
4 5 8 6 9 7 9 10 3 5 11 9 8 10 11 10 12 17 21 21 28 36 34 35 37 37 37 37 35 35 34 33 32 30 31 30 31 32 32 33 32 32 33 31 33 30 29 26 22
5 7 5 5 6 7 8 7 8 9 9 10 8 10 11 11 15 12 26 28 29 33 42 41 40 39 38 38 36 35 35 34 34 32 32 32 31 33 32 33 31 31 31 31 30 29 26 19 19
4 2 3 3 2 5 4 15 6 9 4 10 11 10 10 12 10 23 28 28 30 33 35 42 42 41 42 40 38 36 37 35 36 35 33 33 32 32 32 32 29 30 30 29 29 30 29 26 21
2 6 5 6 4 6 6 15 4 7 8 9 10 11 11 11 13 22 27 30 25 26 35 40 44 45 46 43 39 38 38 37 36 34 35 35 33 32 32 31 27 26 29 29 30 28 30 28 26
5 4 4 4 5 2 10 22 10 9 9 11 10 11 13 15 15 22 31 33 32 27 27 34 42 44 47 42 37 35 35 37 35 34 35 35 35 33 32 31 29 25 26 26 29 28 27 24 26
3 5 10 6 10 4 13 21 17 12 6 9 11 12 13 15 16 22 31 35 33 27 20 28 35 39 35 32 31 27 29 33 36 38 37 35 35 34 33 32 30 27 28 28 28 28 27 23 26
7 8 10 8 12 5 11 21 18 9 8 9 13 12 13 14 14 12 19 29 31 32 28 27 35 37 40 35 37 27 32 31 33 36 36 35 34 33 32 31 30 29 28 27 27 28 18 16 25
8 5 8 11 9 6 7 19 10 6 8 12 12 10 7 8 9 11 13 18 19 18 18 23 31 39 42 38 30 22 25 20 24 31 37 38 34 32 31 30 30 30 28 27 28 29 26 18 23
11 7 14 14 6 7 8 11 25 10 5 9 13 8 8 9 11 12 13 15 21 23 25 17 31 38 39 36 33 34 35 24 27 32 32 35 32 32 30 27 30 30 28 27 27 30 30 25 20
8 9 10 11 4 4 9 3 12 14 17 8 8 8 7 10 11 12 15 20 21 25 28 26 24 37 37 38 37 38 30 29 29 26 27 31 31 31 28 28 30 29 29 27 28 28 26 31 22
8 4 4 3 2 4 19 6 16 10 5 4 8 9 11 12 11 11 15 23 23 27 30 29 12 29 34 37 36 36 34 29 26 27 33 33 34 30 30 28 30 30 29 28 26 26 25 24 25
7 2 2 3 1 8 5 2 7 5 3 1 7 9 11 13 15 16 18 16 23 27 30 29 22 22 30 32 31 32 31 33 34 31 30 29 32 32 32 30 30 28 27 27 27 25 26 26 28
6 4 4 4 3 4 3 6 4 3 4 7 5 8 13 16 15 16 15 16 23 27 30 31 29 12 26 27 28 28 31 32 30 32 31 32 32 29 31 30 28 25 24 28 24 23 25 26 30
4 2 2 4 1 3 4 5 1 3 4 2 5 10 13 15 17 18 18 20 24 26 28 28 28 8 22 23 23 28 29 31 30 32 32 34 32 28 29 30 28 24 21 21 18 19 22 24 28
5 5 4 2 3 6 5 5 5 4 6 5 7 11 14 15 16 17 16 21 26 26 27 26 24 23 6 17 24 20 22 27 28 30 31 33 31 26 26 25 23 21 18 18 18 21 23 24 29
5 2 3 2 4 4 5 4 2 5 8 7 9 13 12 13 14 15 15 20 23 25 24 24 24 24 19 6 16 16 9 18 24 27 29 29 27 25 22 22 20 19 19 17 14 17 21 26 27
5 3 2 2 3 3 3 4 4 7 9 10 12 11 11 13 14 13 14 20 23 26 27 26 26 24 21 12 10 18 15 15 22 25 26 24 26 23 19 17 15 13 12 11 12 14 18 21 24

GFSSGP_925_spd_102.txt.gz
Wind_Speed
1 1 2 5 3 4 4 8 1 5 3 3 3 4 8 3 5 5 7 24 22 28 35 33 33 33 31 29 27 25 25 26 27 27 26 25 26 27 26 25 23 22 19 16 17 16 14 14 15
3 3 4 2 4 1 6 4 7 7 5 10 6 4 2 7 3 2 9 16 28 35 37 35 33 32 29 28 27 26 25 25 26 26 26 26 27 27 25 24 23 21 19 18 17 16 15 16 16
8 3 3 4 4 6 6 5 4 2 8 4 6 3 4 4 5 5 7 20 29 37 37 35 33 32 29 27 26 25 24 23 24 25 26 27 27 26 24 23 22 21 19 19 17 16 16 17 17
5 5 4 3 7 7 7 1 3 7 5 2 1 9 5 8 2 5 12 23 31 36 35 33 32 31 29 27 26 25 24 23 22 23 25 26 26 25 24 23 21 20 19 19 18 18 17 17 17
5 3 3 2 5 6 5 4 3 6 6 6 2 8 4 7 8 9 19 26 34 37 35 34 33 31 29 27 25 24 23 23 22 22 23 23 23 24 24 22 21 19 19 20 19 17 17 18 18
3 3 2 5 6 5 6 7 4 3 4 7 5 5 5 16 7 10 21 27 32 36 36 36 34 32 31 28 26 24 23 22 22 22 21 22 22 22 23 22 21 20 20 20 19 18 18 19 19
6 4 5 4 4 4 3 3 4 4 4 4 5 5 6 9 14 7 22 26 28 32 33 34 33 31 29 29 27 26 24 23 22 22 22 22 22 22 22 22 21 20 20 20 19 19 20 20 21
5 4 4 6 5 8 4 4 1 3 5 8 3 4 9 7 8 9 12 23 26 30 31 31 30 28 27 27 27 27 25 24 22 22 22 22 22 22 22 22 22 22 21 21 20 21 22 23 23
4 2 4 6 7 5 1 4 4 2 5 4 3 3 7 12 1 4 4 11 18 22 25 27 25 26 27 26 26 25 25 24 24 23 23 22 22 23 23 23 23 23 22 20 21 21 23 23 24
4 4 10 7 5 3 5 1 4 4 5 6 9 7 8 4 2 2 2 6 16 22 25 27 25 26 26 25 25 25 25 26 26 25 24 24 24 24 24 24 23 23 22 21 21 22 23 23 24
4 5 4 4 6 3 5 7 4 5 5 8 9 12 10 7 5 6 7 9 11 14 23 29 28 27 28 29 28 27 26 28 26 25 24 24 24 24 25 25 25 25 23 23 23 23 24 24 24
4 7 6 5 7 5 6 7 5 7 8 11 12 9 6 9 8 8 10 19 19 14 22 25 28 28 30 30 29 28 26 28 29 28 27 25 25 26 27 27 28 28 26 25 24 24 23 23 24
5 5 7 8 9 7 7 9 11 6 10 10 10 9 9 9 8 15 16 16 19 24 25 26 28 30 32 32 30 27 24 26 26 28 27 28 29 29 29 29 29 29 28 27 26 25 24 24 23
2 5 7 6 7 5 7 7 7 8 6 8 8 10 10 7 9 14 19 23 21 25 30 34 32 35 34 35 33 30 28 26 26 25 30 30 31 31 31 30 30 29 30 28 27 26 25 23 22
4 4 6 6 6 7 4 1 7 10 6 7 7 9 9 9 12 12 22 24 26 28 30 35 39 39 40 41 40 37 35 29 29 31 31 33 33 33 32 31 31 30 30 30 28 26 26 24 22
3 1 2 4 3 4 6 5 4 7 2 9 12 9 8 9 9 20 22 25 25 27 29 36 39 40 44 45 45 43 40 35 32 33 32 33 34 33 32 32 31 30 29 30 29 27 28 26 26
3 4 3 6 4 4 5 1 4 13 10 9 9 10 10 10 10 19 24 25 26 25 27 30 36 41 43 45 47 45 40 37 36 35 34 33 34 33 32 32 29 29 28 29 28 26 28 28 26
5 3 3 4 6 5 11 14 10 10 7 11 9 10 10 11 12 19 25 26 29 30 27 29 34 39 42 37 35 35 37 34 37 37 36 34 35 34 33 31 28 24 26 26 28 27 27 28 26
2 3 5 5 11 3 13 15 9 9 6 9 10 9 9 10 10 18 20 23 23 24 27 27 32 36 36 32 30 29 30 32 33 37 38 37 36 35 34 33 29 28 27 26 27 25 25 23 28
5 5 6 6 10 6 11 19 13 8 7 7 8 9 8 8 9 11 20 23 22 22 22 18 25 32 36 32 32 30 32 30 34 32 36 37 38 37 37 35 31 29 27 28 27 27 18 19 27
6 4 5 8 5 4 7 11 5 5 3 4 5 5 7 7 10 12 14 22 25 22 24 22 20 23 35 36 31 25 23 19 20 25 29 39 38 38 38 36 33 32 30 30 28 29 23 19 22
6 9 11 7 1 3 3 9 6 4 3 2 6 6 6 9 9 9 13 18 23 24 23 25 23 21 29 35 32 33 29 24 27 34 33 32 42 42 38 37 35 32 29 29 30 30 30 22 18
7 6 7 5 4 2 5 2 6 10 4 3 3 5 6 8 11 13 14 21 26 25 23 24 27 26 23 34 37 38 34 31 25 27 32 33 36 40 37 36 33 30 29 28 29 30 30 28 22
5 2 3 3 3 5 9 7 12 3 2 3 2 5 7 9 11 12 17 22 25 28 26 25 26 29 20 31 36 36 37 30 25 26 28 30 33 38 37 35 32 30 29 28 29 29 30 29 24
8 3 2 2 0 6 5 4 11 2 2 3 2 6 8 10 11 14 17 17 26 31 30 25 26 30 25 26 34 34 30 29 32 31 30 28 30 31 38 35 32 30 29 28 28 28 28 29 27
1 1 3 4 3 4 2 5 5 2 3 5 6 5 7 10 10 14 15 19 25 28 29 30 32 31 31 21 29 29 28 28 28 28 25 26 29 33 38 35 32 28 27 27 27 26 28 27 27
3 2 3 3 2 3 4 5 2 4 4 1 7 10 11 11 13 14 15 20 26 28 30 28 30 31 31 19 23 26 27 28 29 31 33 33 32 32 34 34 29 26 26 23 24 27 26 25 26
6 3 3 2 3 5 5 4 3 5 9 11 11 11 12 13 14 16 15 21 25 26 29 31 30 32 30 17 19 23 23 25 26 29 30 30 30 31 31 29 27 25 24 22 23 22 22 21 24
4 1 1 1 2 3 3 3 4 7 6 7 8 9 9 13 14 15 16 24 26 27 27 28 27 26 26 21 5 18 21 22 22 24 25 27 27 28 29 28 27 25 23 22 19 17 17 18 22
4 3 2 4 4 3 2 5 3 3 7 10 10 11 12 12 13 14 15 22 25 27 28 28 29 30 30 27 15 12 18 16 18 22 23 24 23 25 22 22 22 22 19 15 14 15 15 15 21

GFSSGP_925_spd_105.txt.gz
Wind_Speed
4 3 2 3 3 1 3 4 1 3 2 1 4 5 10 8 6 6 7 11 14 28 33 32 29 29 27 27 26 25 25 25 26 27 27 27 26 26 27 26 26 23 21 19 19 17 15 15 15
7 7 4 2 2 3 5 2 7 7 3 9 5 4 4 4 5 7 6 12 18 29 33 32 30 29 27 26 25 25 25 25 24 25 26 26 26 27 27 26 25 24 21 19 19 17 16 15 15
6 4 2 2 3 7 4 3 2 2 8 3 4 2 4 5 5 4 6 13 22 28 32 32 31 29 27 25 24 25 24 24 23 23 24 25 26 27 26 26 24 23 20 19 19 17 16 17 16
3 2 3 3 12 6 5 3 0 6 2 2 5 4 5 10 15 15 10 13 23 30 32 33 31 31 29 27 25 25 24 23 22 22 22 24 26 26 25 24 23 22 20 20 19 18 18 18 17
5 1 2 4 8 6 4 5 5 3 6 4 5 7 7 9 19 16 7 17 20 29 32 32 32 32 30 29 28 25 24 23 22 22 21 23 25 24 23 22 22 21 20 20 19 18 18 18 17
3 1 3 9 12 6 4 5 3 4 6 4 3 9 5 12 26 15 5 7 17 26 32 32 31 31 30 28 27 26 25 24 23 23 23 22 22 22 22 21 20 19 20 21 19 18 18 19 18
3 3 4 6 5 6 4 4 4 5 4 2 2 8 4 16 19 11 4 9 13 19 26 27 27 29 28 28 27 26 25 24 24 23 22 23 23 22 22 22 21 20 20 19 18 18 18 19 19
4 3 5 6 8 10 5 3 2 2 2 4 2 3 6 13 17 10 2 6 11 18 20 24 24 25 25 26 25 26 26 24 23 24 22 22 21 21 22 21 21 20 19 19 18 18 19 19 19
3 4 7 8 8 5 2 1 2 1 6 3 2 5 12 16 12 7 2 4 7 11 14 17 22 24 26 26 26 24 23 23 24 23 23 22 20 21 21 22 23 21 20 19 18 19 20 19 19
5 4 10 6 7 8 4 4 5 6 9 10 13 8 13 12 13 10 9 8 9 11 16 16 17 19 21 25 24 24 23 23 23 24 25 23 23 21 20 21 22 22 20 19 18 19 19 19 16
6 8 6 5 11 7 6 7 4 9 12 12 15 16 12 13 13 10 10 11 13 13 14 20 19 18 21 23 23 24 26 27 27 25 23 23 23 24 22 19 22 20 20 18 18 19 19 19 17
5 7 7 4 8 6 10 15 12 12 16 15 16 13 11 12 10 10 12 9 11 13 17 20 23 24 25 23 23 22 24 27 28 27 26 25 28 28 22 20 20 20 20 20 21 21 20 19 19
7 6 7 10 9 10 10 14 16 10 14 13 13 11 11 13 10 11 10 13 10 13 15 20 24 26 25 25 21 21 26 28 28 23 28 28 28 30 29 23 23 23 24 23 22 21 21 20 19
2 6 7 6 9 6 8 10 6 11 9 8 7 11 10 8 10 9 12 15 16 16 15 23 24 21 30 32 26 24 23 24 27 28 26 28 24 25 29 29 28 25 25 24 23 22 21 17 17
5 7 6 9 8 7 4 8 10 16 10 7 7 8 10 10 12 12 11 14 19 22 21 17 27 33 32 37 37 33 26 24 24 25 28 31 30 28 30 28 30 29 26 25 24 21 20 16 17
3 2 5 1 3 2 7 9 8 3 4 14 14 11 9 11 9 16 16 15 17 20 23 24 20 27 36 37 41 42 35 26 24 29 29 32 33 31 30 29 28 30 28 26 25 23 19 18 17
0 8 5 6 3 1 4 4 4 12 14 11 13 13 11 11 13 13 14 14 15 15 18 21 22 22 27 33 36 33 30 32 33 27 31 34 35 34 33 30 28 28 26 28 27 25 22 18 18
4 5 4 5 3 9 15 16 16 16 11 14 13 13 13 11 10 10 13 14 16 16 16 17 18 21 25 27 27 26 28 29 33 36 35 35 35 37 35 30 30 29 26 27 27 26 26 23 20
6 7 13 11 12 5 12 14 14 15 10 14 13 10 7 6 7 9 12 14 17 16 17 17 17 18 19 22 25 27 30 33 33 33 36 35 36 37 36 32 31 29 29 26 27 25 23 21 21
8 10 11 9 12 5 12 18 17 16 10 10 5 3 5 7 11 12 15 16 16 18 18 20 18 17 14 23 27 30 32 32 34 33 30 33 35 37 35 34 34 32 29 27 25 25 17 18 25
10 10 8 10 9 7 8 11 4 3 4 9 7 5 7 10 12 14 17 21 20 19 21 22 22 21 18 17 25 25 24 26 26 30 31 36 37 42 39 36 36 35 32 28 29 28 21 16 22
11 11 14 13 4 5 5 8 7 4 6 4 5 6 7 10 12 12 14 20 22 24 23 21 23 24 21 17 22 29 28 26 31 32 35 38 36 35 38 39 36 37 32 30 30 27 28 22 15
8 7 11 10 7 3 6 6 2 3 3 3 2 4 8 9 10 12 13 18 19 21 25 26 25 24 23 21 21 29 32 32 30 29 31 34 35 39 38 36 35 35 34 33 31 27 28 30 21
1 3 3 1 3 6 12 9 5 4 3 0 1 6 9 12 13 14 20 21 20 19 21 26 27 27 25 24 20 30 34 33 27 30 29 30 31 34 39 40 41 39 36 34 30 30 30 29 26
1 4 3 3 4 4 2 8 10 2 3 1 5 7 9 11 14 16 18 20 25 25 25 27 28 30 28 26 22 27 34 34 31 30 29 29 29 30 35 44 40 40 38 33 28 29 28 29 28
2 3 4 5 4 1 4 7 1 8 7 9 7 6 11 14 15 16 17 22 25 25 25 28 30 31 31 29 25 23 31 29 31 31 28 28 29 32 33 38 36 35 35 29 27 25 25 28 28
2 2 2 1 1 4 6 4 3 4 7 8 9 12 14 14 15 16 17 21 25 25 26 28 29 30 30 29 27 17 27 29 27 28 27 26 27 28 31 36 32 31 30 30 28 27 24 21 25
2 2 2 1 4 6 5 6 4 2 8 10 11 11 12 14 17 17 16 22 24 25 28 29 28 26 27 27 23 7 21 28 28 27 27 27 30 28 31 33 32 30 28 28 25 23 21 24 22
2 1 1 1 3 4 5 4 4 6 6 8 9 10 12 14 16 17 17 24 25 27 29 29 30 31 30 31 29 11 15 19 22 26 25 27 27 29 32 31 31 29 24 21 22 17 18 20 21
4 4 3 3 3 3 4 6 8 5 7 7 7 9 10 12 15 17 19 24 25 27 29 29 29 30 29 26 25 18 8 18 20 22 23 25 26 28 29 31 31 28 26 22 19 19 20 19 16

GFSSGP_925_spd_108.txt.gz
Wind_Speed
4 4 4 6 6 5 10 2 1 5 4 2 7 6 8 10 6 8 5 8 5 19 22 29 28 27 26 23 20 19 21 24 25 25 26 25 23 24 26 25 24 23 21 19 18 16 17 14 14
4 4 6 3 7 10 7 2 9 2 2 5 4 4 8 2 4 11 12 10 8 20 23 25 30 29 28 26 23 23 24 24 24 24 24 24 24 24 25 24 24 22 19 18 18 15 15 14 14
5 4 5 4 8 12 8 1 2 5 2 1 3 4 3 5 12 14 12 9 6 18 22 24 32 31 29 28 26 24 23 24 25 24 24 23 23 25 25 24 23 21 19 17 17 15 14 14 14
7 6 4 8 17 12 6 4 5 2 3 3 4 5 0 5 11 18 17 6 9 17 20 24 31 30 29 28 28 26 24 23 24 24 24 23 23 25 24 24 22 20 17 16 17 16 16 15 15
6 3 8 12 20 13 6 7 7 9 5 6 6 6 5 3 14 18 10 3 10 15 17 19 29 29 29 28 27 26 24 23 23 23 24 24 24 25 24 23 22 20 18 17 17 16 16 16 16
6 4 7 14 19 10 8 8 8 10 12 9 8 7 5 3 16 18 10 1 8 13 13 14 25 27 27 26 25 24 23 23 23 22 22 24 25 25 24 22 21 20 18 18 18 16 16 17 16
11 8 13 17 20 15 12 2 7 7 7 5 4 7 2 5 16 15 10 2 8 12 13 14 16 22 25 24 23 22 23 22 22 22 22 23 23 24 23 22 21 19 18 18 17 17 17 17 16
7 6 12 11 16 18 6 7 4 6 7 2 3 4 5 13 16 12 9 3 6 12 15 16 16 16 17 19 21 21 21 22 22 22 22 23 24 23 23 22 21 20 19 19 18 17 16 16 16
5 8 12 19 13 11 6 9 4 2 9 7 6 9 13 17 14 12 9 3 6 9 13 15 15 15 16 16 17 21 21 21 20 21 22 21 18 19 20 21 20 20 19 19 17 17 16 16 16
11 11 15 11 12 13 12 10 11 9 13 14 13 14 11 12 11 11 10 7 7 12 14 13 13 14 17 14 15 18 18 19 20 19 18 20 19 18 19 20 23 22 20 18 17 17 16 16 14
9 18 15 9 13 12 15 16 13 14 17 15 15 14 11 10 10 10 10 9 7 10 14 17 17 15 16 15 16 18 19 19 21 22 21 21 20 20 21 18 19 18 20 16 17 15 15 16 16
12 14 14 14 13 15 16 16 19 18 18 17 16 14 11 11 10 10 9 7 6 6 11 14 18 18 18 17 19 18 20 19 20 21 22 22 21 20 20 21 18 20 19 19 18 18 18 18 19
16 16 13 14 15 17 16 19 22 19 18 16 15 14 13 12 13 11 9 9 7 7 7 11 16 19 20 20 19 20 21 22 20 22 22 23 22 22 21 21 20 20 19 19 18 19 18 18 18
3 9 11 10 12 14 16 18 17 14 13 13 13 13 12 8 8 9 9 9 8 7 9 11 15 19 19 22 25 22 22 22 22 23 24 26 23 21 23 22 21 21 20 19 19 19 18 19 18
11 16 16 17 17 16 14 19 22 18 18 11 11 9 8 8 8 7 8 10 10 11 8 7 13 17 19 22 24 25 25 22 22 23 24 25 26 24 25 26 24 22 21 20 19 18 17 16 15
10 13 13 3 5 7 10 15 4 5 6 10 8 8 8 9 6 7 7 8 10 10 10 8 9 13 20 23 24 24 25 24 23 24 23 27 28 27 24 23 28 23 22 21 20 18 17 16 15
13 14 14 10 10 11 12 11 3 5 11 12 13 11 9 7 6 5 7 8 10 12 13 12 10 11 16 21 25 26 24 26 26 25 25 27 31 29 28 25 24 29 26 21 21 20 19 17 16
15 17 14 13 5 11 14 18 16 17 18 18 14 11 9 5 3 5 8 10 11 11 14 15 13 13 12 18 21 23 25 28 29 28 27 27 29 30 32 28 25 30 28 24 21 20 19 16 16
15 15 17 15 14 14 16 18 16 14 16 16 14 12 5 2 3 5 8 10 11 11 13 14 16 13 14 14 20 23 26 30 31 31 31 28 26 29 33 29 28 31 29 26 26 19 18 15 14
17 18 18 14 12 9 15 18 17 17 16 13 11 4 2 2 5 7 11 12 13 15 15 16 16 16 14 14 19 25 26 30 31 30 30 29 29 30 34 36 33 34 26 27 25 25 17 14 18
19 19 16 14 14 16 18 21 17 2 3 6 5 6 5 6 9 11 13 15 16 16 18 19 18 19 17 17 19 22 27 27 26 28 30 35 36 39 41 41 37 34 30 29 28 29 23 15 21
18 17 15 16 12 10 2 6 6 7 8 9 6 5 6 9 10 11 14 18 20 19 19 20 21 21 20 18 18 21 27 29 31 31 33 33 37 37 38 38 37 32 32 29 30 30 24 20 17
13 10 14 14 13 13 15 8 7 9 12 9 7 7 8 9 11 13 14 19 21 22 23 22 23 23 21 21 20 21 26 31 31 30 29 32 33 38 37 39 37 36 34 30 30 30 26 25 20
8 10 11 10 10 12 17 12 10 13 7 9 6 6 7 9 11 12 16 19 20 22 24 25 26 26 24 22 23 23 27 31 32 31 28 29 32 34 36 38 39 38 34 32 33 29 27 26 23
11 11 8 9 8 10 1 9 10 8 3 6 4 6 9 11 12 13 15 17 19 22 25 27 28 29 27 25 25 25 27 29 38 35 29 28 27 29 35 38 37 37 39 36 33 31 28 27 26
14 15 10 11 11 5 4 7 4 10 11 10 7 6 8 10 11 13 15 19 21 23 24 25 27 31 29 29 29 28 28 30 35 35 30 28 27 28 30 35 35 37 37 34 33 28 27 27 26
7 10 4 6 8 9 11 7 9 10 12 8 6 7 8 10 11 14 16 19 22 25 27 27 30 31 31 32 32 32 30 29 36 37 32 27 25 25 27 33 32 32 35 35 33 28 28 23 24
4 3 3 4 5 12 9 12 6 11 6 6 6 8 9 10 13 14 14 18 20 22 24 26 26 28 32 32 31 30 34 30 34 31 30 27 25 24 24 29 33 31 32 35 31 23 21 22 23
5 6 5 5 6 7 10 6 6 9 3 4 7 8 10 11 12 14 14 18 19 21 23 25 26 28 30 29 31 33 32 21 24 24 26 29 26 28 28 30 33 33 35 36 31 28 22 23 22
7 9 10 8 10 8 9 11 5 6 5 6 8 7 9 11 12 13 16 19 20 23 25 27 29 33 32 32 29 27 21 12 8 16 19 22 24 26 28 30 33 32 31 32 30 26 24 23 20

GFSSGP_925_spd_111.txt.gz
Wind_Speed
7 7 7 9 7 7 14 10 3 5 7 3 3 5 10 10 8 4 14 16 5 9 17 29 27 25 24 22 19 19 19 20 21 21 21 21 19 19 20 20 20 19 15 15 14 14 13 12 10
7 7 9 6 8 12 11 3 5 2 9 1 5 5 9 4 3 7 13 17 9 10 15 24 28 26 24 21 20 19 19 21 22 22 23 23 21 20 21 20 20 18 17 15 14 13 13 12 12
7 9 9 5 13 14 12 8 5 4 2 4 4 4 3 1 6 8 13 14 4 9 15 20 28 27 25 22 20 18 19 20 21 22 23 22 21 21 22 21 21 19 17 15 13 11 12 13 12
8 7 7 10 19 17 12 3 3 4 8 4 5 8 3 3 5 10 12 9 2 8 13 20 25 26 24 23 20 20 19 20 20 21 22 22 21 21 22 21 21 19 16 13 13 13 12 12 12
12 7 11 15 19 19 11 4 7 11 9 7 8 12 6 9 5 11 11 6 3 10 13 13 22 25 24 24 22 20 19 19 19 20 21 21 21 21 23 23 22 19 17 14 14 14 13 13 12
8 5 12 14 18 14 4 3 10 13 11 12 12 13 11 7 8 11 10 6 3 11 15 10 21 25 24 24 22 20 19 18 18 20 20 21 22 23 24 23 22 19 17 15 14 14 12 13 12
14 12 15 18 20 18 15 2 8 12 11 12 4 8 6 7 8 11 8 5 3 8 13 12 16 22 24 24 23 22 20 18 18 18 19 20 21 21 22 22 22 19 17 15 15 15 14 14 13
12 13 22 19 18 18 9 3 8 10 11 5 4 7 9 7 11 12 7 2 3 8 12 14 15 17 17 21 22 21 20 20 19 18 18 19 19 20 21 21 20 19 17 16 16 16 15 15 14
9 10 14 20 20 17 4 8 10 4 11 9 9 13 12 15 15 13 12 6 5 8 12 15 16 19 17 16 17 20 19 19 19 19 19 19 17 17 17 19 18 19 19 17 17 16 16 16 15
14 13 20 18 15 15 13 13 13 12 12 13 12 14 14 13 15 12 12 11 7 11 14 14 14 17 19 18 17 17 17 18 18 17 17 17 17 17 18 18 20 19 19 18 17 17 16 17 13
16 20 21 20 14 12 19 19 17 17 18 15 15 14 13 14 14 14 13 13 11 8 16 16 15 17 19 18 18 18 19 18 18 18 19 19 19 18 17 18 18 18 20 17 18 16 16 17 16
22 22 20 19 20 16 19 19 20 20 19 16 16 15 15 13 12 13 13 12 6 6 9 15 18 18 18 18 19 18 19 20 20 21 22 20 21 21 19 20 19 21 20 20 19 19 20 20 19
21 21 20 21 17 19 20 21 22 22 19 16 15 14 14 14 14 16 16 12 10 7 5 8 15 17 18 19 19 19 20 21 21 18 22 24 22 21 21 21 21 21 22 20 21 19 18 20 19
17 16 18 19 19 18 20 21 20 17 12 14 14 14 13 15 13 16 13 13 6 6 4 7 10 15 17 19 20 21 21 21 20 20 24 25 24 21 21 22 22 21 18 22 20 20 19 19 19
19 24 22 23 23 25 20 24 23 23 21 18 17 12 14 11 12 11 13 6 7 8 7 3 7 10 16 17 18 21 22 22 22 22 23 26 27 24 25 24 23 23 20 20 22 22 19 18 16
15 19 21 18 18 13 18 21 15 4 8 12 12 13 10 14 12 12 1 5 7 7 6 6 6 8 12 17 17 20 23 23 24 23 24 30 28 29 27 25 27 23 21 20 21 23 20 19 17
16 19 24 20 12 11 13 15 7 4 6 12 13 12 11 11 9 4 1 4 7 7 8 8 8 8 10 14 21 23 23 24 25 25 26 27 31 30 29 24 27 27 27 22 21 22 21 19 19
19 20 21 19 17 15 17 23 17 13 15 16 16 15 12 10 8 8 3 4 6 7 9 9 10 10 10 13 17 23 26 27 27 27 27 27 28 30 28 25 24 26 27 28 22 23 23 20 19
24 25 26 21 15 13 18 22 21 20 20 17 17 15 14 12 6 3 2 4 7 9 11 12 12 11 11 12 14 19 23 26 27 30 28 28 28 27 30 29 27 29 29 30 29 23 22 22 17
24 24 26 22 20 18 20 24 21 21 18 17 16 13 9 5 5 4 4 7 9 10 12 14 14 14 13 13 14 17 23 22 28 28 29 31 28 29 31 32 31 32 31 30 30 29 21 20 21
25 25 23 23 19 15 18 25 25 23 25 19 14 2 10 4 1 2 5 8 10 12 13 15 16 17 16 17 17 18 21 27 26 27 29 29 32 33 33 34 31 30 31 30 33 31 28 21 21
23 21 22 20 18 16 20 16 11 9 10 7 11 9 9 5 2 5 7 10 12 12 13 15 16 18 19 19 19 19 21 24 26 27 29 30 32 33 35 34 37 32 33 30 32 31 29 23 20
21 19 16 18 17 20 22 14 16 21 16 16 13 11 5 3 5 8 10 14 15 16 16 17 18 18 19 20 20 22 23 24 27 31 30 30 30 34 35 37 35 36 35 33 31 30 31 29 23
20 15 16 18 16 16 22 19 16 13 14 19 15 8 2 6 8 10 12 15 16 17 18 19 19 20 21 21 21 22 26 27 28 29 32 28 30 29 34 35 38 38 34 34 33 34 35 33 28
15 15 13 11 12 15 19 17 15 11 19 14 15 8 5 7 9 10 12 15 19 21 21 22 22 24 24 24 24 25 26 28 31 32 32 33 27 27 30 37 36 37 37 34 35 35 30 28 29
14 15 9 7 12 11 7 8 3 16 15 12 10 5 6 9 10 11 13 16 18 20 21 23 24 27 27 27 27 27 27 28 31 33 35 34 31 32 30 35 36 36 36 35 34 34 34 41 35
8 18 13 11 18 11 9 4 8 10 11 9 9 8 10 11 12 13 14 16 18 20 22 22 23 26 26 27 29 29 28 29 32 35 37 39 38 31 30 33 36 35 34 33 32 31 32 32 31
8 7 6 6 10 17 14 16 8 15 11 8 5 5 7 9 11 13 13 19 20 22 23 24 24 26 28 28 28 28 32 34 35 36 39 42 39 37 30 30 34 34 33 33 34 30 28 24 22
7 9 6 6 7 6 11 5 10 13 7 5 5 4 7 10 10 11 12 18 19 22 24 25 26 28 29 30 33 32 33 32 31 34 38 40 39 36 30 30 31 33 31 37 34 33 28 28 23
8 11 13 9 13 13 13 14 11 7 5 3 4 4 8 9 11 11 13 18 20 22 23 24 25 27 30 32 32 33 31 29 24 25 13 26 33 31 32 26 28 31 33 36 37 34 31 28 24